Probability
4 5 9 12 10 7 2 0 0 0 0 0 0 0 0 0 0 0 1 2 4 3 1 0 1 1 0 0 0 0 0 1 1 0 0 1 2 3 1 0 0 0 1 2 3 3 3 3 3
4 7 12 14 10 4 1 0 0 0 0 0 0 0 0 0 0 0 1 3 4 3 1 0 1 2 1 1 1 0 1 2 2 1 0 1 2 3 2 1 0 0 1 2 2 3 3 3 3
9 13 18 17 8 1 0 0 0 0 0 0 0 0 0 0 0 0 1 2 3 2 1 0 2 3 3 3 3 1 1 3 3 1 1 1 2 3 3 2 1 1 1 1 1 2 2 3 3
20 23 22 13 4 0 0 0 0 0 0 0 0 0 0 0 0 0 0 1 1 1 0 1 3 4 4 5 4 3 3 3 3 2 1 1 1 2 3 3 3 2 1 1 2 3 3 3 4
26 27 19 7 1 0 0 0 0 0 0 0 0 0 0 0 0 0 0 0 0 0 0 1 4 5 4 3 3 3 3 3 3 1 1 0 0 1 2 2 2 2 2 2 3 3 3 3 4
26 23 13 3 0 0 0 0 0 0 0 0 0 0 0 0 0 0 0 0 0 0 0 1 3 4 3 2 1 1 2 2 2 1 0 0 0 0 1 1 1 2 2 3 3 3 3 3 3
21 16 7 1 0 0 0 0 0 1 0 0 0 0 1 1 0 0 0 0 0 0 1 1 2 2 3 3 2 1 1 1 1 1 1 1 2 2 2 2 2 3 3 3 3 3 3 3 3
14 9 4 1 0 0 0 0 0 0 0 0 0 1 2 1 0 0 0 0 0 0 1 2 2 3 3 3 3 3 2 2 2 3 3 4 4 4 3 3 3 3 3 3 4 4 4 4 4
7 5 2 0 0 0 0 0 0 0 1 1 1 3 3 1 0 0 0 1 1 0 1 2 2 3 3 3 3 3 3 4 3 4 4 4 4 4 3 3 4 4 5 5 6 6 6 6 6
3 2 1 0 0 0 0 0 0 0 2 3 4 5 4 2 1 1 1 1 1 0 0 1 1 1 2 3 3 3 4 4 4 5 5 5 4 3 2 2 3 5 6 6 7 7 7 6 5
1 1 0 0 0 0 0 0 0 0 2 4 6 6 6 4 3 3 2 1 0 0 0 0 0 0 1 1 3 3 4 4 5 6 7 7 6 5 3 2 2 4 4 4 6 7 6 5 4
0 0 0 0 0 0 0 0 0 0 2 5 6 7 6 5 4 4 2 1 0 0 0 1 2 2 2 2 3 3 3 4 5 7 8 8 6 5 3 2 2 1 2 3 4 4 5 4 3
0 0 0 0 0 0 0 0 0 1 4 6 7 6 5 4 4 3 3 2 1 1 1 3 6 7 6 6 6 4 3 4 5 8 9 7 5 5 3 1 1 1 1 3 3 3 4 4 3
0 0 0 0 0 0 0 0 0 2 5 7 6 5 3 3 2 3 4 3 2 2 3 5 9 11 11 9 7 5 4 4 6 9 10 7 4 5 4 1 1 2 3 3 3 3 4 4 4
0 0 0 0 0 0 0 0 1 3 5 7 6 3 1 2 2 3 4 5 4 5 7 9 11 12 12 9 6 5 5 6 7 9 10 7 5 5 3 1 1 3 4 3 3 4 4 4 5
0 0 0 0 0 0 0 1 4 5 6 7 5 2 1 2 4 6 7 7 8 10 12 12 12 13 11 8 6 6 6 7 7 7 9 8 5 3 2 1 2 3 4 3 3 4 3 2 3
1 1 1 1 1 0 0 2 5 7 7 7 6 5 4 5 9 11 11 11 13 15 15 14 14 14 11 9 8 7 7 7 6 6 7 8 5 2 1 1 1 2 3 2 2 4 4 3 3
0 0 1 1 1 0 0 2 5 7 8 7 7 8 8 10 14 16 17 16 17 19 19 18 17 17 15 12 9 7 7 7 8 7 7 8 5 3 2 2 2 2 2 1 1 3 4 4 3
0 0 0 1 1 0 0 1 3 6 8 7 7 10 13 15 16 18 19 19 20 21 24 25 24 22 18 15 13 10 9 10 10 9 8 9 8 5 4 4 5 5 3 2 2 2 2 3 3
0 0 0 0 0 0 0 1 3 5 6 7 8 11 16 18 19 19 19 20 20 23 27 31 30 27 21 20 19 17 15 13 12 10 10 11 11 8 5 5 6 6 5 5 5 4 3 2 2
0 0 0 0 0 0 1 1 2 4 6 8 9 12 16 19 20 19 18 19 20 24 28 32 33 31 27 25 23 21 19 16 13 12 14 15 14 11 7 5 6 6 6 7 7 7 6 5 3
0 0 0 0 0 0 1 2 3 6 8 9 10 13 15 19 21 20 20 20 21 24 28 32 36 36 32 28 24 22 20 17 15 16 17 17 16 14 10 7 7 7 7 7 6 6 6 5 4
0 0 0 0 0 0 1 2 4 7 9 11 12 15 17 20 22 23 22 23 23 23 27 34 40 41 37 32 27 23 21 18 17 18 18 18 18 17 14 12 12 12 10 8 5 5 5 5 4
0 0 0 0 0 0 1 2 5 7 10 12 15 17 18 19 21 23 24 24 25 26 28 35 41 42 38 35 30 26 23 22 21 20 18 17 18 17 15 15 17 18 16 12 9 7 7 6 6
0 0 0 1 0 0 1 4 6 6 8 12 15 16 17 18 19 21 22 23 26 29 31 35 41 41 38 36 32 29 27 26 26 23 19 17 17 17 16 19 22 23 21 18 14 11 9 7 8
0 0 0 0 0 0 1 4 5 5 7 10 12 13 14 15 18 20 20 20 25 29 31 34 38 39 37 36 34 32 31 29 27 24 20 18 17 18 20 24 25 24 22 21 18 14 11 9 9
0 0 0 0 0 0 1 3 5 6 7 8 9 9 9 11 15 18 19 19 23 28 30 32 36 38 37 35 35 35 35 32 29 25 23 21 20 19 21 24 24 22 21 21 19 16 14 13 13
0 0 0 0 0 0 0 2 6 7 8 9 9 8 7 9 13 16 18 19 22 25 29 31 35 37 36 35 34 36 37 35 32 29 26 24 20 19 19 20 20 20 21 20 19 18 17 16 16
0 0 0 0 0 0 0 2 5 8 9 11 11 10 9 11 13 17 19 18 20 23 27 30 32 34 35 35 35 37 38 35 32 30 28 25 21 19 19 19 19 19 19 19 18 18 17 16 16
0 0 0 0 0 0 0 2 5 8 10 13 14 12 11 12 14 19 21 20 19 22 25 28 29 32 34 36 37 39 39 35 30 29 28 24 22 21 21 20 18 17 17 18 19 17 16 16 16
Wind_Speed
10 10 8 5 3 1 7 11 13 13 12 12 13 13 16 16 12 9 6 8 11 11 11 10 9 9 8 7 7 7 6 6 6 5 5 5 5 4 5 6 5 5 5 5 6 6 6 6 6
9 10 6 3 2 3 8 10 12 12 10 9 13 15 15 15 13 10 7 8 10 11 11 10 9 9 8 7 7 7 7 6 6 5 6 6 6 6 6 6 6 5 5 5 5 5 5 5 6
11 10 4 3 2 6 9 11 11 11 10 10 13 15 12 10 11 8 7 8 10 11 11 11 10 9 8 7 7 7 6 7 7 7 7 7 6 6 6 6 5 6 5 4 4 4 4 4 5
6 4 4 1 7 7 8 9 8 10 10 11 12 11 12 10 9 9 8 8 10 11 11 11 10 9 8 8 7 6 6 7 7 8 8 7 6 6 6 5 5 5 5 4 4 4 4 4 5
5 3 3 2 7 8 9 9 10 11 11 12 14 13 11 10 11 9 8 8 9 10 10 11 11 10 9 8 7 6 7 7 7 7 7 6 5 5 5 5 5 4 4 3 3 4 4 4 4
4 3 2 4 8 9 9 9 11 11 9 11 12 13 10 8 8 8 8 8 8 9 10 11 11 10 10 9 8 7 6 6 6 6 6 5 5 4 4 4 4 4 3 2 3 3 3 3 4
5 4 3 5 8 9 8 8 10 9 9 10 10 11 9 8 7 8 8 7 7 8 8 9 9 9 9 8 8 6 5 5 6 5 4 4 4 4 3 4 4 3 2 2 2 3 3 4 5
4 4 4 6 8 9 8 9 10 10 11 10 8 9 9 8 8 8 8 6 6 7 6 6 7 8 6 7 7 7 6 5 5 5 3 3 3 4 4 3 3 3 2 2 3 4 5 5 6
4 2 3 6 7 8 8 8 9 11 12 12 13 13 11 10 9 7 7 7 7 6 5 6 5 5 4 5 7 7 6 4 4 4 4 3 2 2 3 3 5 4 3 3 4 5 6 6 6
1 2 4 7 7 7 8 7 8 9 10 11 12 13 12 10 8 6 7 7 6 6 5 5 5 4 3 3 4 3 4 4 3 2 2 2 2 1 2 5 5 4 4 4 5 6 6 6 4
1 2 5 6 6 8 8 9 7 9 9 10 11 12 11 9 7 7 7 7 6 6 5 5 6 5 4 3 2 1 2 2 2 2 1 1 1 0 1 2 3 3 4 3 3 5 4 3 2
2 4 4 5 6 7 8 9 9 10 10 11 11 11 10 9 7 6 7 6 6 5 5 6 6 5 4 4 2 2 1 1 2 2 1 1 1 1 1 0 0 1 1 1 1 1 2 2 2
1 2 2 3 4 6 7 8 8 10 11 11 11 11 9 8 8 7 7 7 6 5 6 6 6 5 4 3 2 2 2 1 2 2 2 1 1 1 1 1 1 1 0 1 1 1 1 2 2
2 2 1 2 3 4 5 7 8 9 10 10 10 8 7 7 8 7 7 6 6 5 5 5 5 5 3 2 1 1 1 2 2 2 3 2 2 1 1 0 1 1 0 0 1 1 1 2 1
0 2 2 2 5 4 3 5 6 9 9 9 8 7 7 7 7 6 7 6 6 5 5 4 5 5 3 2 0 1 1 2 2 2 2 2 2 1 1 0 1 1 0 1 1 1 1 1 1
3 4 3 3 4 6 3 4 7 8 8 8 8 7 7 6 6 6 7 6 6 6 4 3 4 5 3 2 1 2 2 2 2 1 2 2 1 1 1 1 1 1 0 0 1 0 1 1 1
4 4 4 2 3 5 4 5 7 8 9 8 7 7 7 7 6 6 6 7 6 6 5 4 4 4 3 2 1 1 1 1 1 2 2 2 1 2 2 1 1 1 1 1 1 2 1 2 2
2 3 2 1 2 2 2 4 6 6 8 8 8 7 8 7 7 7 7 7 7 6 5 5 4 3 1 2 1 1 1 1 1 2 2 2 2 2 2 1 2 2 1 2 2 2 2 2 2
4 4 2 2 2 2 1 2 4 6 6 7 7 7 7 8 8 7 7 8 8 7 6 5 3 2 1 1 1 0 0 1 1 2 2 2 2 3 2 3 2 2 2 2 2 2 3 2 1
4 5 4 3 3 3 2 1 3 5 6 6 6 6 7 8 8 8 7 7 8 7 6 5 4 3 1 1 0 0 0 0 1 2 2 2 2 2 2 2 2 3 2 2 2 2 2 2 2
6 4 5 5 5 6 4 3 4 5 5 6 6 6 7 7 8 9 7 7 7 7 7 5 4 3 2 1 1 0 1 1 1 1 1 1 2 2 2 2 2 2 2 1 2 2 2 3 2
6 3 6 7 7 5 5 2 2 5 5 6 6 6 6 6 7 7 8 6 6 7 7 6 5 4 3 2 0 0 1 1 1 1 1 1 1 1 1 2 2 2 2 2 2 2 2 2 3
6 6 9 9 7 7 5 3 2 6 5 4 5 5 5 6 7 7 8 7 6 7 8 7 6 4 3 2 1 0 1 1 1 1 1 0 1 1 1 1 1 2 2 2 2 2 2 2 2
7 8 9 9 7 7 6 2 2 2 4 4 5 6 6 5 5 6 7 7 6 7 8 8 7 5 4 3 2 1 0 1 1 1 0 0 0 1 2 2 1 2 2 2 2 2 2 3 3
7 7 5 5 4 5 3 1 3 5 5 5 5 6 6 6 5 6 6 6 5 6 7 8 8 6 5 4 2 1 0 0 0 1 1 1 1 1 2 2 1 2 2 2 2 1 2 2 3
6 6 6 6 6 5 4 1 4 5 6 7 7 7 6 6 6 6 7 6 6 6 6 7 7 6 5 4 3 2 1 1 0 1 1 1 1 1 1 1 1 1 2 2 2 2 2 2 3
7 7 8 9 9 6 4 1 5 6 6 6 6 6 6 6 6 6 6 7 6 6 6 6 6 6 5 5 4 2 2 1 1 1 1 1 1 1 1 1 1 1 1 2 2 1 2 2 2
7 8 6 6 5 5 3 2 1 3 4 5 5 5 5 5 6 7 6 6 6 6 6 6 6 5 5 5 4 3 3 2 1 1 0 1 1 2 1 1 1 1 1 2 2 2 2 2 2
7 8 5 5 6 6 5 0 4 2 4 4 5 5 6 5 5 6 6 6 5 5 6 5 5 6 5 4 4 3 3 2 2 1 0 0 1 1 1 1 2 1 1 2 2 3 2 2 2
9 9 7 5 5 7 6 0 4 2 4 5 5 6 6 5 6 6 6 5 4 4 4 4 4 5 6 4 4 3 2 2 2 1 0 0 0 1 1 1 2 2 2 2 2 3 3 3 2
Wind_Direction
197 209 217 241 257 249 53 62 61 56 57 54 51 56 56 50 54 80 91 95 101 104 112 104 92 89 86 88 90 92 93 94 100 107 111 112 107 100 105 108 110 123 137 145 151 155 162 170 175
227 222 228 253 276 62 63 62 65 64 63 66 66 65 64 62 69 89 92 97 104 104 106 100 100 93 88 90 91 90 90 90 92 97 107 103 100 94 96 102 106 111 121 135 145 157 163 171 175
248 254 258 242 33 59 66 64 68 76 68 67 71 61 61 66 74 90 102 106 98 97 101 108 108 102 99 99 96 92 89 87 88 88 98 101 96 94 93 93 100 107 114 124 138 150 160 170 175
241 241 249 255 64 63 71 73 73 81 72 67 76 71 66 69 84 95 103 106 106 105 104 114 115 109 106 107 101 99 91 87 91 92 96 97 94 95 99 101 103 105 111 121 135 148 161 171 179
240 257 258 82 77 71 68 73 70 71 70 72 79 87 80 76 88 99 103 97 101 104 109 119 121 116 113 106 99 95 90 87 91 93 93 94 96 101 110 114 111 109 111 125 145 162 171 179 186
260 275 277 77 83 78 72 74 75 73 81 89 92 92 86 95 98 99 93 90 94 104 113 124 130 128 129 121 113 106 98 93 95 98 100 103 107 108 117 120 119 116 117 137 158 176 180 193 203
264 293 323 64 81 81 82 81 81 81 73 75 88 93 100 101 99 100 90 90 95 100 111 129 138 136 136 130 128 124 115 113 114 112 112 119 127 131 138 130 127 135 147 160 177 187 203 215 217
262 304 347 53 75 79 79 80 79 82 77 74 82 92 106 114 112 105 97 91 90 94 99 111 125 137 143 143 145 143 140 138 138 139 142 150 146 162 172 166 162 167 179 196 203 208 218 221 223
258 302 15 54 68 82 87 88 91 85 87 77 71 87 110 117 107 103 97 85 76 80 92 97 97 113 126 133 143 156 158 160 160 168 176 179 194 175 171 165 165 176 192 209 217 222 223 225 227
253 32 38 50 63 76 79 79 93 98 95 91 92 100 113 114 116 114 101 93 85 81 81 86 88 88 98 100 125 154 148 149 166 154 179 177 189 188 134 153 169 184 205 218 229 234 231 229 225
120 63 54 52 63 78 80 79 78 90 95 102 110 114 116 120 115 106 94 92 91 82 74 85 82 76 70 73 95 99 110 128 145 138 136 132 155 153 123 157 179 197 212 228 222 228 236 232 228
67 36 47 55 56 72 82 83 77 76 84 100 107 114 119 119 112 107 104 104 100 88 78 72 79 74 59 48 49 71 80 106 104 98 95 91 67 32 33 20 184 189 224 238 256 263 268 269 250
50 61 58 74 87 86 92 91 91 88 93 103 111 114 123 124 119 111 108 104 102 97 88 83 81 74 76 60 7 73 70 74 93 101 67 55 63 43 48 353 311 243 222 211 238 261 274 285 263
46 12 74 109 101 97 101 103 105 106 110 112 113 120 126 124 123 119 111 110 113 107 101 100 100 90 81 89 53 48 76 87 82 91 80 46 52 31 33 345 321 305 276 260 250 244 241 252 277
104 251 232 201 143 123 111 109 109 119 123 124 126 129 127 123 122 120 119 124 121 114 101 112 118 105 94 83 58 103 76 83 76 81 80 56 52 8 345 338 311 310 337 231 251 273 273 258 264
254 254 242 202 158 145 175 124 125 137 138 139 141 139 134 126 123 119 116 116 113 114 110 95 97 104 106 86 33 33 50 65 70 81 83 71 38 0 349 21 359 326 332 340 289 319 296 312 320
229 246 242 190 168 153 184 141 142 160 149 150 151 151 147 143 140 133 130 125 116 113 114 95 75 87 92 91 67 69 79 61 50 62 66 55 20 12 353 32 5 322 13 4 331 19 336 328 327
235 264 260 213 154 161 182 141 154 167 160 157 158 159 157 152 148 143 142 134 128 127 120 113 102 93 106 101 67 31 87 101 78 67 70 53 6 18 4 1 6 344 26 21 13 6 335 308 303
304 309 310 308 306 259 238 172 166 163 165 156 161 158 158 152 149 147 148 142 138 136 132 128 122 111 107 86 103 194 63 97 102 103 83 60 21 12 19 8 1 1 29 20 359 354 332 322 310
276 280 282 279 284 268 256 216 194 173 165 156 153 154 151 147 144 144 152 153 148 145 142 137 141 139 141 132 188 184 82 343 107 77 85 57 43 10 17 25 353 9 19 13 0 354 335 321 332
277 286 291 286 288 265 246 232 196 169 156 152 153 149 148 154 154 155 158 160 156 150 150 149 143 144 150 166 192 235 127 44 70 107 97 94 69 53 11 9 4 354 19 12 334 357 333 324 321
280 285 272 268 275 276 265 263 180 158 155 153 152 149 148 150 149 154 157 160 161 155 152 141 139 143 152 160 230 195 128 95 74 102 104 100 78 62 41 22 359 343 360 6 335 8 327 320 324
298 288 279 278 274 277 247 243 181 165 152 145 143 143 145 147 146 150 155 157 160 157 152 145 141 144 146 163 182 196 51 57 67 63 56 94 97 65 46 61 5 353 4 359 354 359 339 336 343
282 281 276 273 267 262 253 236 186 165 143 135 131 126 129 134 136 141 146 148 158 154 153 149 143 149 159 173 172 157 138 17 46 48 7 305 92 46 31 48 25 17 3 2 354 338 346 351 348
269 284 287 283 262 263 260 205 132 134 132 126 124 129 131 131 129 131 129 132 142 146 148 145 145 154 163 164 163 164 180 162 4 309 261 282 76 64 34 36 26 16 5 354 338 342 345 350 333
266 273 285 300 303 299 297 104 107 118 118 120 125 123 122 123 122 127 128 131 133 138 140 138 145 155 158 156 155 149 156 237 269 296 308 357 27 79 66 60 30 15 1 354 343 349 344 343 325
266 271 280 280 285 294 323 48 119 115 117 117 116 118 118 119 119 124 125 126 134 139 142 145 150 155 159 161 160 159 176 226 305 322 321 357 358 31 62 71 45 355 0 349 337 344 347 335 323
255 279 294 296 304 300 297 274 141 145 128 125 124 120 115 115 120 121 121 125 131 134 133 143 156 158 162 165 177 174 182 199 226 253 151 21 4 11 18 21 1 348 6 4 336 329 335 335 331
254 252 258 282 299 303 291 333 127 161 137 118 117 115 102 102 108 115 117 114 119 127 139 152 154 157 167 174 173 179 174 191 195 205 226 90 351 355 11 354 338 339 347 344 330 323 330 327 325
266 273 274 274 276 275 284 2 127 123 103 94 102 108 101 101 100 102 109 108 109 108 122 141 156 172 170 170 167 176 170 173 180 183 234 124 54 344 4 345 334 327 351 343 328 319 326 321 320